Weather in Barlyk

Russia / Tyva Republic     51°08′09″N   90°32′28″E
temp.,
°C
wind,
m/s
gust,
m/s
humid.,
%
clouds,
%
prec.,
mm/h
press.,
hPa
HPBL,
m
9 august, tue
tue901:00+13nnw117676 1.9 100912
04:00+12nnw2277100 0.0 101012
07:00+14nnw11655 0.0 101055
10:00+19s11495 0.0 1009595
13:00+25s1233100 0.0 10061334
16:00+26n1227100 0.0 10032581
19:00+12ssw4898100 2.6 1009270
22:00+14sse0091100 5.8 101130
10 august, wed
wed1001:00+12ne119867 5.8 101110
04:00+11nw119656 0.1 101110
07:00+13wsw018872 0.1 101176
10:00+18sse1171100 0.0 1011634
13:00+23e224399 0.0 1008934
16:00+25e123231 0.0 10062190
19:00+25ene233650 0.0 1006145
22:00+16nne2257100 0.0 100813
11 august, thu
thu1101:00+14nnw226582 0.0 100915
04:00+12nnw11737 0.0 101011
07:00+15n11640 0.0 101149
10:00+20sse11480 0.0 1010841
13:00+25se23364 0.0 10081489
16:00+25ne543795 0.1 1006967
19:00+21e554944 0.3 1008544
22:00+13nnw228433 0.5 101219
12 august, fri
fri1201:00+12nw11866 1.4 101110
04:00+13w0079100 0.0 101010
07:00+15nne1173100 0.0 101034
10:00+16s1169100 0.0 1010311
13:00+19s2358100 0.0 1009703
16:00+22ssw4437100 0.2 10081623
19:00+18nnw4557100 0.3 1008138
22:00+15nnw226981 0.0 100918
13 august, sat
sat1301:00+12nnw227898 0.0 100911
04:00+12nnw2173100 0.0 100813
07:00+14nw1163100 0.0 100945
10:00+19ssw2349100 0.0 1008762
13:00+23sw2336100 0.1 10062237
16:00+24wsw123287 0.0 10052449
19:00+17nw4465100 0.6 100865
22:00+15nw326925 1.0 100920